Skip Page Navigation
NASA JPL Caltech
NASA Logo - Jet Propulsion Laboratory + View the NASA Portal
+ Center for Near-Earth Object Studies
JPL Home Earth Solar System Stars & Galaxies Technology
JPL Solar System Dynamics
BODIES ORBITS EPHEMERIDES TOOLS PHYSICAL DATA DISCOVERY FAQ SITE MAP
IMPORTANT: The SSD Announcement email list is now available. Major changes are coming in the near future, including possible hostname and/or URL changes. To be notified of such changes, subscribe to this email list.

Please visit this page for more details.


JPL Small-Body Database Browser
Search: [ help ]  
434751 (2006 HV57)
Classification: Amor [NEO]          SPK-ID: 2434751
Ephemeris | Orbit Diagram | Orbital Elements | Mission Design | Physical Parameters | Discovery Circumstances | Close-Approach Data ]

[ show orbit diagram ]
Orbital Elements at Epoch 2458600.5 (2019-Apr-27.0) TDB
Reference: JPL 27 (heliocentric ecliptic J2000)
 Element Value Uncertainty (1-sigma)   Units 
e .5865381037028111 1.4415e-07  
a 2.717840948597373 6.581e-08 au
q 1.123723672441221 3.8503e-07 au
i 6.019992039136905 1.1409e-05 deg
node 264.5739313331648 0.0001435 deg
peri 18.05464105837779 0.00014615 deg
M 294.9035037271061 3.8029e-05 deg
tp 2458896.430410486655
(2020-Feb-16.93041049)
0.00018318 TDB
period 1636.569613955657
4.48
5.9442e-05
1.627e-07
d
yr
n .2199723109424382 7.9896e-09 deg/d
Q 4.311958224753526 1.0441e-07 au
  Orbit Determination Parameters
   # obs. used (total)      155  
   data-arc span      3301 days (9.04 yr)  
   first obs. used      2006-04-29  
   last obs. used      2015-05-13  
   planetary ephem.      DE431  
   SB-pert. ephem.      SB431-N16  
   condition code      0  
   norm. resid. RMS      .5522  
   source      ORB  
   producer      Otto Matic  
   solution date      2017-Apr-06 09:20:47  

Additional Information
 Earth MOID = .111103 au 
 Jupiter MOID = .884342 au 
 T_jup = 3.079 
[ show covariance matrix ]

Ephemeris | Orbit Diagram | Orbital Elements | Mission Design | Physical Parameters | Discovery Circumstances | Close-Approach Data ]

Physical Parameter Table
Parameter Symbol Value Units Sigma Reference Notes
absolute magnitude H 18.5   n/a MPO335620  

434751 (2006 HV57)          Discovered 2006-Apr-29 by Siding Spring Survey at Siding Spring
Reference: Last Updated: 2015-06-04

[ hide close-approach data ]
Close-Approach Data   ...sorted by Date/Time (TDB)
Date/Time (TDB) Time Uncertainty
(days_HH:MM)
Body Nominal Distance (au) Minimum Distance (au) Maximum Distance (au) V-relative (km/s) V-infinity (km/s) JD (TDB) Time Uncertainty (minutes) Semi-major axis (km) Semi-minor axis (km) range-LOV angle (deg) N-sigma BP Orbit Ref. Reference Modified
1918-Oct-25 15:31 00:03 Jupiter 0.861600337872244 0.861596827579078 0.861603848172659 4.32118976285718 4.0873609956707 2421892.146413502 2.58595243187715 250.787160674025 113.843214113412 -57.6060272953772 684700.134861173 T 27 CATAB v2.0e-lin.ifort 2017-Nov-26 17:45:06 2018-Dec-18 03:13
1934-Jul-13 14:31 00:04 Earth 0.158781223848991 0.158766037816721 0.158796409890396 8.14602873891434 8.14396847812468 2427632.104600569 4.1847982734679 759.657088798844 51.4223793761041 4.68426011133042 40203.5242621386 T 27 CATAB v2.0e-lin.ifort 2017-Nov-26 17:45:06 2018-Dec-18 03:13
1943-Jun-09 00:37 00:02 Earth 0.207935602181479 0.207918798782467 0.207952405596471 10.7152927067842 10.7140967824591 2430884.525546018 2.08120528274645 842.849770074167 46.1425879579189 6.25413619568793 67992.7148335749 T 27 CATAB v2.0e-lin.ifort 2017-Nov-26 17:45:06 2018-Dec-18 03:13
1954-Jun-21 03:21 00:03 Jupiter 0.873011746973962 0.873009466358038 0.873014027592019 4.3126920271493 4.0815256667541 2434914.639513618 2.53639969558248 222.031249901927 106.693915133568 77.9160322442784 1074196.4211381 T 27 CATAB v2.0e-lin.ifort 2017-Nov-26 17:45:06 2018-Dec-18 03:13
1961-Jun-02 08:28 < 00:01 Earth 0.352883447835016 0.352872673576341 0.352894222102638 14.1734312196307 14.1728984809508 2437452.852751873 0.742902134161358 544.584623021599 50.7212876546384 9.45547663127578 163629.921811407 T 27 CATAB v2.0e-lin.ifort 2017-Nov-26 17:45:06 2018-Dec-18 03:13
1970-Jun-04 23:56 < 00:01 Earth 0.345187828809181 0.345177645859664 0.34519801176582 13.4825602332687 13.4819877092193 2440742.497140988 0.789392889003368 513.835280865841 52.8572762001241 8.86607144243647 146745.821044693 T 27 CATAB v2.0e-lin.ifort 2017-Nov-26 17:45:06 2018-Dec-18 03:13
1979-Jun-06 02:48 < 00:01 Earth 0.285208404095878 0.285198470578796 0.285218337618084 12.5150880017888 12.5143415030418 2444030.616886993 0.999301261191694 499.036202495284 51.3095286508787 7.03816571434692 107472.507616086 T 27 CATAB v2.0e-lin.ifort 2017-Nov-26 17:45:06 2018-Dec-18 03:13
1990-Apr-02 12:56 00:01 Jupiter 1.44808668649584 1.44807738694877 1.44809598604497 6.13840090325532 6.04236005893723 2447984.038924903 1.01362445390733 474.411183800432 163.139492895966 17.574714223367 367738.369621254 T 27 CATAB v2.0e-lin.ifort 2017-Nov-26 17:45:06 2018-Dec-18 03:13
1997-Jun-30 05:53 < 00:01 Earth 0.149713718362722 0.1497126584637 0.149714778261939 6.37244577533868 6.36965233235848 2450629.745378534 0.771963537994199 55.7251255085441 46.6240597094325 35.1915616920873 555543.090236158 T 27 CATAB v2.0e-lin.ifort 2017-Nov-26 17:45:06 2018-Dec-18 03:13
2006-Jul-31 23:00 < 00:01 Earth 0.455829841275489 0.455826718573466 0.455832963977512 14.7207738275019 14.7203767412776 2453948.458158680 0.274382902558972 155.786184707534 50.5155476068276 -1.8518691507726 386822.990985801 T 27 CATAB v2.0e-lin.ifort 2017-Nov-26 17:45:06 2018-Dec-18 03:13
2013-Sep-05 17:55 00:02 Jupiter 1.50042441673134 1.50041870380574 1.50043012965676 6.66522233203413 6.57998061074509 2456541.246218322 1.7277655546598 286.004600159068 180.974421051826 -13.927429829305 525779.547896028 T 27 CATAB v2.0e-lin.ifort 2017-Nov-26 17:45:06 2018-Dec-18 03:13
2049-May-25 06:51 00:03 Jupiter 0.897883898641595 0.897882236882195 0.897885560400637 4.41343182130764 4.19424273386454 2469586.785472386 3.23680050427915 205.671176656632 77.3999485722799 -88.4137391932944 831634.010552288 T 27 CATAB v2.0e-lin.ifort 2017-Nov-26 17:45:06 2018-Dec-18 03:13
2060-Aug-18 08:11 00:02 Earth 0.456648482823434 0.45660626162589 0.456690704094878 18.2906059607286 18.2902869494548 2473689.841106172 2.46102270219097 2125.24749200902 47.1372373361427 -7.84565046727765 176185.047409366 T 27 CATAB v2.0e-lin.ifort 2017-Nov-26 17:45:06 2018-Dec-18 03:13
2069-Jul-18 03:30 00:11 Earth 0.145678895214332 0.145643364731257 0.145714425723923 8.11836451364049 8.11611127368681 2476945.645898502 10.8121630677421 1774.47382167717 49.9382047635523 -3.34838573256305 23032.530802784 T 27 CATAB v2.0e-lin.ifort 2017-Nov-26 17:45:06 2018-Dec-18 03:13
2078-May-29 18:07 00:04 Earth 0.335705043449307 0.335650226623584 0.335759860379489 15.3211079180288 15.3205898680484 2480183.254592112 4.15049462192384 2749.40510121096 49.0281678587959 6.18384305239669 95679.6291095238 T 27 CATAB v2.0e-lin.ifort 2017-Nov-26 17:45:06 2018-Dec-18 03:13
2085-Jan-15 07:17 00:04 Jupiter 0.857587264829144 0.857585098144354 0.857589431514129 4.22846220016933 3.98804850584166 2482605.803773827 3.82971109334133 185.98641970415 109.885652526969 88.3894371737071 1209401.75122599 T 27 CATAB v2.0e-lin.ifort 2017-Nov-26 17:45:06 2018-Dec-18 03:13
2087-Jun-01 10:53 00:05 Earth 0.332489039303032 0.332428738228191 0.332549340439674 14.9905997240122 14.9900651304066 2483472.953170229 4.99405066390662 3015.46012541449 54.0082613066115 4.32609277505701 60432.2497799247 T 27 CATAB v2.0e-lin.ifort 2017-Nov-26 17:45:06 2018-Dec-18 03:13
2120-Sep-23 18:25 00:08 Jupiter 1.05559909730062 1.05556948182356 1.05562871286912 4.873588969238 4.70606532818737 2495640.267182054 7.97363831082264 1560.87429733694 168.822181553245 27.8811239615184 235045.597400273 T 27 CATAB v2.0e-lin.ifort 2017-Nov-26 17:45:06 2018-Dec-18 03:13
2141-Jun-18 14:35 00:18 Earth 0.242652162177588 0.242510047246149 0.24279427709231 10.1689979819354 10.1679181079221 2503213.107295921 17.8596612442236 7085.98457304086 49.9933468396283 0.0941112998586273 4129.41661594784 T 27 CATAB v2.0e-lin.ifort 2017-Nov-26 17:45:06 2018-Dec-18 03:13
2144-Mar-11 19:17 00:04 Jupiter 1.98632823736797 1.98627633504197 1.98638013972513 8.46814902573168 8.41764191490841 2504210.303626811 4.47527720697398 2618.1849168118 152.859413154004 13.0337633676864 207085.491892132 T 27 CATAB v2.0e-lin.ifort 2017-Nov-26 17:45:06 2018-Dec-18 03:13
2150-Jun-24 12:46 00:30 Earth 0.135603308824995 0.135510838756134 0.135695785135219 8.18588147363576 8.18348076029183 2506506.031871152 30.2857694919262 4834.16439399115 48.0604232786123 -17.5086766319176 106698.135766293 T 27 CATAB v2.0e-lin.ifort 2017-Nov-26 17:45:06 2018-Dec-18 03:13
2159-Jul-04 22:27 00:34 Earth 0.133863625843172 0.13384641202707 0.133880844852682 6.49266437202979 6.489597967927 2509803.435191154 33.7546394896787 1572.32028268149 48.8440376599152 -56.9795288650812 329788.02674902 T 27 CATAB v2.0e-lin.ifort 2017-Nov-26 17:45:06 2018-Dec-18 03:13
2168-Aug-02 19:04 00:18 Earth 0.301089836350153 0.300907977436101 0.301271697196212 11.553541385921 11.5527754092664 2513120.294366471 17.5199696545706 9148.02857269423 45.4547878996204 -7.58483317799255 104247.714792661 T 27 CATAB v2.0e-lin.ifort 2017-Nov-26 17:45:06 2018-Dec-18 03:13
2179-Dec-22 06:43 00:08 Jupiter 1.03128892116491 1.03123934592171 1.031338496326 4.81985803977654 4.64633007720152 2517278.780064990 7.8323705735013 2428.27996232608 168.376374669567 19.5146136807602 151704.64419697 T 27 CATAB v2.0e-lin.ifort 2017-Nov-26 17:45:06 2018-Dec-18 03:13
2186-Aug-29 08:39 00:16 Earth 0.492178413466733 0.491869950056634 0.492486880878229 20.0438754465015 20.0436053549339 2519720.860519500 16.2379993530168 15540.294918342 37.4438001276734 -8.19261193953862 249577.748092129 T 27 CATAB v2.0e-lin.ifort 2017-Nov-26 17:45:06 2018-Dec-18 03:13
2195-Jul-19 17:14 01:34 Earth 0.121248793533654 0.12105760014519 0.121439989935661 7.43255466888632 7.42959745168089 2522967.218281025 93.7273864476701 9581.66638982433 48.8864179652047 -5.8393537982259 30963.3665020294 T 27 CATAB v2.0e-lin.ifort 2017-Nov-26 17:45:06 2018-Dec-18 03:13
Ephemeris | Orbit Diagram | Orbital Elements | Mission Design | Physical Parameters | Discovery Circumstances | Close-Approach Data ]
ABOUT SSD CREDITS/AWARDS PRIVACY/COPYRIGHT GLOSSARY LINKS
FirstGov 2019-Dec-08 11:19 UT
(server date/time)  
NASA Home Page
Site Manager:   Ryan S. Park
Webmaster  Alan B. Chamberlin